Georgia Highway — 7JCV — position and weather

sailwx.info

Track history (hours):
 
Tides and Currents Weather Stations Pressure Air Temp Water Temp Dewpoint Dewpoint Depression Visibility Wind Speed Wind Dir Waves Ship Positions

Georgia Highway

Last reported at 2014-Oct-25 02:31 UTC. Time now 2014-Oct-25 02:59 UTC.
Position N 53°35' E 008°33'.

Length 199 m; draft 9 m.

Type: Ship. MMSI: 432629000.

Date/timePositionNaut miles runAvg speedWind from/ knotsBaromVisibWave heightAir tempDewpointWater temp
2014-Oct-25 02:31N 53°35' E 008°33'0 0.0
2014-Oct-25 01:31N 53°35' E 008°33'0 0.0
2014-Oct-25 00:31N 53°35' E 008°33'0 0.0
2014-Oct-24 23:31N 53°35' E 008°33'0 0.0
2014-Oct-24 22:28N 53°35' E 008°33'0 0.0
2014-Oct-24 21:31N 53°35' E 008°33'0 0.0
2014-Oct-24 20:31N 53°35' E 008°33'0 0.0
2014-Oct-24 19:31N 53°35' E 008°33'0 0.0
2014-Oct-24 18:31N 53°35' E 008°33'0 0.0
2014-Oct-24 17:31N 53°35' E 008°33'0 0.0
2014-Oct-24 16:31N 53°35' E 008°33'0 0.0
2014-Oct-24 15:31N 53°35' E 008°33'0 0.0
2014-Oct-24 14:31N 53°35' E 008°33'0 0.0
2014-Oct-24 13:31N 53°35' E 008°33'0 0.0
2014-Oct-24 12:31N 53°35' E 008°33'0 0.0
2014-Oct-24 11:32N 53°35' E 008°33'0 0.0
2014-Oct-24 10:31N 53°35' E 008°33'0 0.0
2014-Oct-24 09:31N 53°35' E 008°33'0 0.0
2014-Oct-24 08:31N 53°35' E 008°33'0 0.0
2014-Oct-24 07:31N 53°35' E 008°33'0 0.0
2014-Oct-24 06:31N 53°35' E 008°33'0 0.0
2014-Oct-24 05:31N 53°35' E 008°33'0 0.0
2014-Oct-24 04:31N 53°35' E 008°33'0 0.0
2014-Oct-24 03:31N 53°35' E 008°33'0 0.0
2014-Oct-24 02:31N 53°35' E 008°33'0 0.4
2014-Oct-24 01:33N 53°34' E 008°33'5 4.7
2014-Oct-24 00:33N 53°38' E 008°28'1615.8
2014-Oct-23 23:33N 53°48' E 008°08'4715.6
2014-Oct-23 20:31N 53°47' E 006°48'1919.7
2014-Oct-23 19:32N 53°43' E 006°16'1919.6
2014-Oct-23 18:33N 53°37' E 005°45'2019.8
2014-Oct-23 17:33N 53°31' E 005°13'2020.0
2014-Oct-23 16:33N 53°23' E 004°42'2120.1
2014-Oct-23 15:31N 53°05' E 004°26'1919.8
2014-Oct-23 14:33N 52°48' E 004°11'2019.7
2014-Oct-23 13:33N 52°33' E 003°49'2119.6
2014-Oct-23 12:30N 52°19' E 003°25'1919.0
2014-Oct-23 11:30N 52°05' E 003°04'1818.4
2014-Oct-23 10:33N 51°52' E 002°45'1716.6
2014-Oct-23 09:33N 51°35' E 002°43'1313.3
2014-Oct-23 08:34N 51°22' E 002°46'1414.3
2014-Oct-23 07:34N 51°24' E 003°09'4 4.4
2014-Oct-23 06:32N 51°20' E 003°13'0 0.1
2014-Oct-23 05:33N 51°20' E 003°13'2 2.1
2014-Oct-23 04:33N 51°18' E 003°14'0 0.0
2014-Oct-23 03:33N 51°18' E 003°14'0 0.0
2014-Oct-23 02:33N 51°18' E 003°14'0 0.0
2014-Oct-23 01:30N 51°18' E 003°14'0 0.0
2014-Oct-23 00:27N 51°18' E 003°14'0 0.0
2014-Oct-22 23:30N 51°18' E 003°14'0 0.0
2014-Oct-22 22:33N 51°18' E 003°14'0 0.0
2014-Oct-22 21:33N 51°18' E 003°14'0 0.0
2014-Oct-22 20:33N 51°18' E 003°14'0 0.0
2014-Oct-22 19:33N 51°18' E 003°14'0 0.0
2014-Oct-22 18:21N 51°18' E 003°14'0 0.0
2014-Oct-22 17:33N 51°18' E 003°14'1 0.6
2014-Oct-22 16:33N 51°19' E 003°14'1 1.5
2014-Oct-22 15:33N 51°20' E 003°13'1 1.5
2014-Oct-22 14:33N 51°21' E 003°12'1514.2
2014-Oct-22 13:32N 51°25' E 002°50'1111.1
2014-Oct-22 12:32N 51°22' E 002°33'9 9.6
2014-Oct-22 11:33N 51°20' E 002°18'1110.7
2014-Oct-22 10:34N 51°23' E 002°34'1111.4
2014-Oct-22 09:34N 51°19' E 002°17'1413.8
2014-Oct-22 08:34N 51°23' E 002°38'8 7.5
2014-Oct-22 07:34N 51°21' E 002°27'1414.1
2014-Oct-22 06:34N 51°14' E 002°08'1514.5
2014-Oct-22 05:34N 51°06' E 001°48'1413.8
2014-Oct-22 04:34N 50°56' E 001°33'1312.6
2014-Oct-22 03:33N 50°45' E 001°23'11 1.3
2014-Oct-21 19:29N 50°52' E 001°10'1515.6
2014-Oct-21 18:33N 51°01' E 001°28'1716.8
2014-Oct-21 17:33N 51°13' E 001°46'1515.0
2014-Oct-21 16:34N 51°25' E 002°01'1212.4
2014-Oct-21 15:33N 51°20' E 002°20'1312.7
2014-Oct-21 14:33N 51°23' E 002°40'10 9.6
2014-Oct-21 13:33N 51°25' E 002°54'9 8.5
2014-Oct-21 12:33N 51°23' E 003°08'9 8.7
2014-Oct-21 11:33N 51°22' E 002°54'9 9.1
2014-Oct-21 10:33N 51°22' E 002°39'1717.2
2014-Oct-21 09:34N 51°16' E 002°14'3819.2
2014-Oct-21 07:33N 50°52' E 001°27'17817.1
2014-Oct-20 21:09N 49°48' W 002°53'1118.0
2014-Oct-20 20:33N 49°47' W 003°10'  
Track history (hours):
 
Tides and Currents Weather Stations Pressure Air Temp Water Temp Dewpoint Dewpoint Depression Visibility Wind Speed Wind Dir Waves Ship Positions

Georgia Highway

Last reported at 2014-Oct-25 02:31 UTC. Time now 2014-Oct-25 02:59 UTC.
Position N 53°35' E 008°33'.

Length 199 m; draft 9 m.

Type: Ship. MMSI: 432629000.

Date/timePositionNaut miles runAvg speedWind from/ knotsBaromVisibWave heightAir tempDewpointWater temp
2014-Oct-25 02:31N 53°35' E 008°33'0 0.0
2014-Oct-25 01:31N 53°35' E 008°33'0 0.0
2014-Oct-25 00:31N 53°35' E 008°33'0 0.0
2014-Oct-24 23:31N 53°35' E 008°33'0 0.0
2014-Oct-24 22:28N 53°35' E 008°33'0 0.0
2014-Oct-24 21:31N 53°35' E 008°33'0 0.0
2014-Oct-24 20:31N 53°35' E 008°33'0 0.0
2014-Oct-24 19:31N 53°35' E 008°33'0 0.0
2014-Oct-24 18:31N 53°35' E 008°33'0 0.0
2014-Oct-24 17:31N 53°35' E 008°33'0 0.0
2014-Oct-24 16:31N 53°35' E 008°33'0 0.0
2014-Oct-24 15:31N 53°35' E 008°33'0 0.0
2014-Oct-24 14:31N 53°35' E 008°33'0 0.0
2014-Oct-24 13:31N 53°35' E 008°33'0 0.0
2014-Oct-24 12:31N 53°35' E 008°33'0 0.0
2014-Oct-24 11:32N 53°35' E 008°33'0 0.0
2014-Oct-24 10:31N 53°35' E 008°33'0 0.0
2014-Oct-24 09:31N 53°35' E 008°33'0 0.0
2014-Oct-24 08:31N 53°35' E 008°33'0 0.0
2014-Oct-24 07:31N 53°35' E 008°33'0 0.0
2014-Oct-24 06:31N 53°35' E 008°33'0 0.0
2014-Oct-24 05:31N 53°35' E 008°33'0 0.0
2014-Oct-24 04:31N 53°35' E 008°33'0 0.0
2014-Oct-24 03:31N 53°35' E 008°33'0 0.0
2014-Oct-24 02:31N 53°35' E 008°33'0 0.4
2014-Oct-24 01:33N 53°34' E 008°33'5 4.7
2014-Oct-24 00:33N 53°38' E 008°28'1615.8
2014-Oct-23 23:33N 53°48' E 008°08'4715.6
2014-Oct-23 20:31N 53°47' E 006°48'1919.7
2014-Oct-23 19:32N 53°43' E 006°16'1919.6
2014-Oct-23 18:33N 53°37' E 005°45'2019.8
2014-Oct-23 17:33N 53°31' E 005°13'2020.0
2014-Oct-23 16:33N 53°23' E 004°42'2120.1
2014-Oct-23 15:31N 53°05' E 004°26'1919.8
2014-Oct-23 14:33N 52°48' E 004°11'2019.7
2014-Oct-23 13:33N 52°33' E 003°49'2119.6
2014-Oct-23 12:30N 52°19' E 003°25'1919.0
2014-Oct-23 11:30N 52°05' E 003°04'1818.4
2014-Oct-23 10:33N 51°52' E 002°45'1716.6
2014-Oct-23 09:33N 51°35' E 002°43'1313.3
2014-Oct-23 08:34N 51°22' E 002°46'1414.3
2014-Oct-23 07:34N 51°24' E 003°09'4 4.4
2014-Oct-23 06:32N 51°20' E 003°13'0 0.1
2014-Oct-23 05:33N 51°20' E 003°13'2 2.1
2014-Oct-23 04:33N 51°18' E 003°14'0 0.0
2014-Oct-23 03:33N 51°18' E 003°14'0 0.0
2014-Oct-23 02:33N 51°18' E 003°14'0 0.0
2014-Oct-23 01:30N 51°18' E 003°14'0 0.0
2014-Oct-23 00:27N 51°18' E 003°14'0 0.0
2014-Oct-22 23:30N 51°18' E 003°14'0 0.0
2014-Oct-22 22:33N 51°18' E 003°14'0 0.0
2014-Oct-22 21:33N 51°18' E 003°14'0 0.0
2014-Oct-22 20:33N 51°18' E 003°14'0 0.0
2014-Oct-22 19:33N 51°18' E 003°14'0 0.0
2014-Oct-22 18:21N 51°18' E 003°14'0 0.0
2014-Oct-22 17:33N 51°18' E 003°14'1 0.6
2014-Oct-22 16:33N 51°19' E 003°14'1 1.5
2014-Oct-22 15:33N 51°20' E 003°13'1 1.5
2014-Oct-22 14:33N 51°21' E 003°12'1514.2
2014-Oct-22 13:32N 51°25' E 002°50'1111.1
2014-Oct-22 12:32N 51°22' E 002°33'9 9.6
2014-Oct-22 11:33N 51°20' E 002°18'1110.7
2014-Oct-22 10:34N 51°23' E 002°34'1111.4
2014-Oct-22 09:34N 51°19' E 002°17'1413.8
2014-Oct-22 08:34N 51°23' E 002°38'8 7.5
2014-Oct-22 07:34N 51°21' E 002°27'1414.1
2014-Oct-22 06:34N 51°14' E 002°08'1514.5
2014-Oct-22 05:34N 51°06' E 001°48'1413.8
2014-Oct-22 04:34N 50°56' E 001°33'1312.6
2014-Oct-22 03:33N 50°45' E 001°23'11 1.3
2014-Oct-21 19:29N 50°52' E 001°10'1515.6
2014-Oct-21 18:33N 51°01' E 001°28'1716.8
2014-Oct-21 17:33N 51°13' E 001°46'1515.0
2014-Oct-21 16:34N 51°25' E 002°01'1212.4
2014-Oct-21 15:33N 51°20' E 002°20'1312.7
2014-Oct-21 14:33N 51°23' E 002°40'10 9.6
2014-Oct-21 13:33N 51°25' E 002°54'9 8.5
2014-Oct-21 12:33N 51°23' E 003°08'9 8.7
2014-Oct-21 11:33N 51°22' E 002°54'9 9.1
2014-Oct-21 10:33N 51°22' E 002°39'1717.2
2014-Oct-21 09:34N 51°16' E 002°14'3819.2
2014-Oct-21 07:33N 50°52' E 001°27'17817.1
2014-Oct-20 21:09N 49°48' W 002°53'1118.0
2014-Oct-20 20:33N 49°47' W 003°10'  

Dump ship's entire track history